Regional Weather Roundup
Issued by NWS

Home | Current Version | Previous Version | Text Only | Print | Product List | Glossary Off
Versions: 1 2 3 4 5 6 7 8 9 10 11 12 13 14 15 16 17 18 19 20 21 22 23 24 25 26 27 28 29 30 31 32 33 34 35 36 37 38 39 40 41 42 43 44 45 46 47 48 49 50

000
ASUS43 KDTX 311410
RWRMI
MICHIGAN HOURLY REGIONAL WEATHER ROUNDUP
NATIONAL WEATHER SERVICE DETROIT/PONTIAC MI
1000 AM EDT TUE MAY 31 2016

NOTE: "FAIR" INDICATES FEW OR NO CLOUDS BELOW 12,000 FEET WITH NO
SIGNIFICANT WEATHER AND/OR OBSTRUCTION TO VISIBILITY.

MIZ047>049-052>055-059>063-066>070-074>076-081>083-311500-
SOUTHEAST LOWER MICHIGAN

CITY           SKY/WX    TMP DP  RH WIND       PRES   REMARKS
ADRIAN         MOSUNNY   76  51  41 NE8       30.05S
ALMA           SUNNY     70  52  53 N6        30.08S
ANN ARBOR      SUNNY     74  52  46 NE8       30.05R
BAD AXE        SUNNY     67  53  61 N8        30.09R
CARO           SUNNY     71  55  55 NE5       30.07S
DETROIT CITY   SUNNY     75  52  44 NE9       30.05R
DETROIT        PTSUNNY   76  52  43 NE9       30.05R
FLINT          SUNNY     76  50  40 NE5       30.06S
GROSSE ILE     MOSUNNY   75  55  50 NE9       30.03R
HILLSDALE      SUNNY     75  41  29 NE6       30.06S
HOWELL         SUNNY     74  48  38 E7        30.06S

CITY           SKY/WX    TMP DP  RH WIND       PRES   REMARKS
JACKSON        SUNNY     74  51  44 E6        30.06S
LAMBERTVILLE   CLOUDY    75  57  53 E5        30.04R
LANSING        SUNNY     73  51  46 E5        30.07R
LAPEER         FAIR      72  48  41 NE3       30.07S
MASON          SUNNY     73  49  43 E3        30.07R
MONROE         MOSUNNY   76  57  52 NE6       30.03S
MT. CLEMENS    MOSUNNY   73  56  56 NE3       30.06S
PONTIAC        MOSUNNY   75  47  36 VRB7      30.05S
PORT HOPE        N/A     62  56  80 VRB3      30.08R
PORT HURON     SUNNY     72  57  60 NE8       30.05S
TRI CITIES     SUNNY     72  54  53 NE10      30.08R
MIDLAND        FAIR      69  53  55 NE6       30.07S
TROY           SUNNY     76  49  38 NE6       30.07S
SAGINAW HB     SUNNY     72  55  56 NE9       30.07R
$$
MIZ043>046-050>051-056>058-064>065-071>073-077>080-311500-
SOUTHWEST LOWER MICHIGAN

CITY           SKY/WX    TMP DP  RH WIND       PRES   REMARKS
BATTLE CREEK   SUNNY     73  49  42 E6        30.06S
BENTON HARBOR  MOSUNNY   77  52  41 E9        30.03S
BIG RAPIDS     SUNNY     68  56  66 E5        30.07F
COLDWATER      MOSUNNY   74  50  42 E5        30.05F
FREMONT        FAIR      70  54  56 SE5       30.06S
HOLLAND        SUNNY     75  50  41 SE8       30.06S
GRAND RAPIDS   PTSUNNY   75  52  44 E7        30.07S
IONIA          FAIR      70  51  51 NE3       30.07S
KALAMAZOO      SUNNY     76  52  43 VRB5      30.05F
LUDINGTON      SUNNY     69  55  62 SE5       30.05F
MARSHALL       SUNNY     74  51  45 MISG      30.06S
MOUNT PLEASANT SUNNY     68  54  59 E6        30.07S
MUSKEGON       PTSUNNY   73  51  46 SE6       30.05F
SOUTH HAVEN    SUNNY     75  53  47 E5        30.04S
$$
MIZ016>042-311500-
NORTHERN LOWER MICHIGAN

CITY           SKY/WX    TMP DP  RH WIND       PRES   REMARKS
ALPENA         MOSUNNY   60  49  66 N10       30.11R
BEAVER ISLAND  SUNNY     54  45  72 NE8       30.12R
BELLAIRE       SUNNY     62  48  59 N5        30.09F
CADILLAC       SUNNY     67  53  60 CALM      30.08S
CHARLEVOIX     SUNNY     55  49  81 N6        30.12F
FRANKFORT      MOSUNNY   64  52  66 NE10      30.08S
GAYLORD        SUNNY     61  46  57 NE6       30.10S
GRAYLING       SUNNY     66  51  57 NE6       30.09F
HARBOR SPRINGS MOSUNNY   58  47  66 E8        30.11S
HOUGHTON LAKE  SUNNY     67  51  56 E5        30.09S
MANISTEE         N/A     66  54  63 NE7       30.07
OSCODA         SUNNY     67  49  52 N7        30.08R
PELLSTON       MOSUNNY   59  46  62 NE7       30.12S
ROGERS CITY    MOSUNNY   52  46  82 N7        30.13S
TRAVERSE CITY  MOSUNNY   60  49  66 NE7       30.08S
$$
MIZ007>008-015-311500-
EASTERN UPPER MICHIGAN

CITY           SKY/WX    TMP DP  RH WIND       PRES   REMARKS
KINROSS          N/A     54  43  66 NE3       30.13S
MACKINAC ISLAN MOSUNNY   52  45  77 N6        30.13S
NEWBERRY       SUNNY     53  43  68 NE6       30.13F
S. S. MARIE    SUNNY     56  42  59 VRB5      30.12S
MUNISING         N/A     51  44  77 NE12      30.13S
$$
MIZ004>006-011>014-085-311500-
CENTRAL UPPER MICHIGAN

CITY           SKY/WX    TMP DP  RH WIND       PRES   REMARKS
MANISTIQUE     SUNNY     55  44  66 N8        30.11R
ESCANABA       SUNNY     54  45  71 E9G17     30.08F
MENOMINEE      CLOUDY    53  47  79 E12       30.09R
SAWYER-GWINN   SUNNY     50  41  71 NE12      30.10F
$$
MIZ001>003-009>011-084-311500-
WESTERN UPPER MICHIGAN

CITY           SKY/WX    TMP DP  RH WIND       PRES   REMARKS
IRON MOUNTAIN  CLOUDY    54  43  66 SE6       30.07S
HOUGHTON       CLOUDY    43  40  89 E15       30.09F
COPPER HARBOR    N/A     50  41  71 SE9       30.13F
IRONWOOD       CLOUDY    55  46  71 SE9       29.98R
$$

ABBREVIATIONS USED IN REMARKS
   TC - TEMPERATURE IN CELSIUS
  WCI - WIND CHILL INDEX
   HX - HEAT INDEX
  VSB - VISIBILITY





USA.gov is the U.S. government's official web portal to all federal, state and local government web resources and services.